Flag for Norway Weather past 2 weeks in Knarrevik/Straume, Norway

Now
42 °F

Scattered clouds.


Feels Like: 39 °F
Forecast: 36 / 48 °F
Wind: 5 mph from Northwest

Location: Bergen / Flesland

Current Time: Apr 27, 2015 at 7:44:12 PM

Latest Report: Apr 27, 2015 at 7:00 PM


Visibility: 22 mi

Pressure: 29.66 "Hg

Humidity: 82%

Dew point: 37 °F

Location of Knarrevik/StraumeLocation

Historic Weather in Knarrevik/Straume — Graph

°F

Knarrevik/Straume temperature yesterday

Maximum temperature yesterday: 45 °F (at 6:00 PM)
Minimum temperature yesterday: 36 °F (at 1:00 AM)
Average temperature yesterday: 40 °F

Past Weeks' High & Low Weather Summary

 TemperatureHumidityPressure
High59 °F (Apr 20, 5:00 PM)99% (Apr 21, 5:00 AM)30.47 "Hg (Apr 21, 5:00 AM)
Low34 °F (Apr 13, 3:00 AM)39% (Apr 19, 3:00 PM)29.23 "Hg (Apr 25, 1:00 PM)
Average43 °F78%29.99 "Hg
* Reported Apr 12 6:00 PM — Apr 27 6:00 PM, Knarrevik/Straume, Weather by CustomWeather, © 2015

Note: Actual official high and low records may vary slightly from our data, if they occured in-between our weather recording intervals... More about our weather records

Advertising

Knarrevik/Straume weather history for previous 24 hours

 ConditionsComfort  
Time TempWeatherWind HumidityBarometerVisibility
6:00 PM
Mon, Apr 27
39 °FLots of rain. Overcast.3 mph82%29.66 "Hg3 mi
5:00 PM40 °FRain showers. Overcast.5 mph78%29.65 "Hg16 mi
4:00 PM44 °FRain showers. Overcast.5 mph59%29.63 "Hg17 mi
3:00 PM46 °FScattered clouds.3 mph59%29.62 "Hg16 mi
2:00 PM46 °FPartly sunny.5 mph48%29.62 "Hg22 mi
1:00 PM46 °FSunny.5 mph52%29.61 "Hg19 mi
12:00 PM45 °FPassing clouds.6 mph49%29.61 "Hg19 mi
11:00 AM45 °FSunny.3 mph49%29.61 "Hg17 mi
10:00 AM43 °FSunny.5 mph54%29.61 "Hg19 mi
9:00 AM42 °FSunny.3 mph66%29.62 "Hg25 mi
8:00 AM39 °FPassing clouds.3 mph75%29.62 "Hg19 mi
7:00 AM38 °FOvercast.3 mph86%29.62 "Hg19 mi
6:00 AM36 °FScattered clouds.2 mph88%29.63 "Hg19 mi
5:00 AM38 °FRain showers. Overcast.3 mph83%29.63 "Hg19 mi
4:00 AM37 °FOvercast.3 mph84%29.64 "Hg25 mi
3:00 AM37 °FPassing clouds.5 mph87%29.65 "Hg19 mi
2:00 AM38 °FOvercast.3 mph89%29.66 "Hg14 mi
1:00 AM37 °FPassing clouds.3 mph89%29.67 "Hg16 mi
12:00 AM38 °FPassing clouds.2 mph89%29.67 "Hg14 mi
11:00 PM
Sun, Apr 26
38 °FPassing clouds.5 mph82%29.67 "Hg19 mi
10:00 PM38 °FPassing clouds.2 mph87%29.67 "Hg19 mi
9:00 PM39 °FRain showers. Overcast.5 mph83%29.66 "Hg5 mi
8:00 PM42 °FPartly sunny.5 mph66%29.65 "Hg16 mi
7:00 PM43 °FPartly sunny.5 mph69%29.65 "Hg15 mi
Weather by CustomWeather, © 2015

See weather overviewHow to use our weather pages